Location: Unspecified
(0.0000°N, 0.0000°E)
Time: 07:26:49
(UTC+00:00)

Freja - Pass Details

Date: 02 June 2024
Orbit: 548 x 1731 km, 63.0° (Epoch: 13 June)

Event Time Altitude Azimuth Distance (km) Brightness Sun altitude
Rises 18:52:45 0° 344° (NNW) 2,771 9.0 -12.6°
Reaches altitude 10° 18:55:01 10° 349° (NNW) 1,828 8.0 -13.1°
Maximum altitude 18:58:53 54° 67° (ENE) 671 5.0 -14.0°
Enters shadow 19:01:14 22° 136° (SE) 1,238 6.1 -14.6°
